User: anonymous   Login
Location: Unspecified
(0.0000°N, 0.0000°E)
Time: 07:47:04
(UTC+00:00)
Language:

STARLINK-35598 - Orbit

View from above orbital plane
View from above orbital plane
View from above satellite
View from above satellite

Ground track
Ground track

The orbit is defined by the following mean orbital elements,

1 66509U          26145.64501052 +.00000000 +00000-0 +58143-3 0 00004
2 66509  42.9976 276.4878 0000785 251.1236 108.9530 15.27594015    02
Epoch (UTC): 25 May 2026 15:28:48
Eccentricity: 0.0000785
inclination: 42.9976°
perigee height: 482 km
apogee height: 484 km
right ascension of ascending node: 276.4878°
argument of perigee: 251.1236°
revolutions per day: 15.27594015
mean anomaly at epoch: 108.9530°

The dashed part of the orbit path shows where the satellite is in the earth's shadow,  

DLR